Olympia, WA
on Friday, January 11, 2013

Friday
Previous Day Next Day
Daily Summary
 ActualAverageRecord
Temperature
Mean Temperature °F / °C 40°F / 4°C  
Max Temperature 39°F / 4°C 45°F / 7°C 59°F / 15°C (1983)
Min Temperature 23°F / -5°C 34°F / 1°C 6°F / -14°C (1963)
Degree Days
Heating Degree Days 34 25  
Month to date heating degree days 293 285  
Since 1 July heating degree days 2456 2555  
Cooling Degree Days 0 0  
Month to date cooling degree days 0 0  
Year to date cooling degree days 0 0  
Moisture
Dew Point 27°F / -3°C   
Average Humidity 77    
Maximum Humidity 100    
Minimum Humidity 54    
Precipitation
Precipitation 0.00 in / 0.00 cm 0.26 in / 6.60 cm 1.16 in / 2.95 cm (1953)
Month to date precipitation 2.76 2.83  
Year to date precipitation 2.76 2.83  
Wind
Wind Speed 2 mph / 3 km/h   
Max Wind Speed 12 mph / 19 km/h   
Max Gust Speed 14 mph / 23 km/h   
Visibility 4 miles / 7 kilometers   
Events Fog   

Key: T is trace of precipitation, MM is missing value
Source: NWS Daily Summary
Time(PST)TemperatureDew PointHumidity Pressure Visibility Wind DirectionWind SpeedGust SpeedPrecipitationEvents Conditions
12:06 AM 32.0°F / 0.0°C 32.0°F / 0.0°C 100% 30.13 in / 1020.2 hPa 1.8 miles / 2.8 kilometers Calm Calm - N/A   Mostly Cloudy
12:10 AM 32.0°F / 0.0°C 30.9°F / -0.6°C 96% 30.13 in / 1020.2 hPa 1.2 miles / 2.0 kilometers Calm Calm - N/A   Mostly Cloudy
12:21 AM 32.0°F / 0.0°C 32.0°F / 0.0°C 100% 30.13 in / 1020.2 hPa 0.5 miles / 0.8 kilometers Calm Calm - N/A Fog Fog
12:34 AM 32.0°F / 0.0°C 30.9°F / -0.6°C 96% 30.12 in / 1019.9 hPa 0.2 miles / 0.4 kilometers Calm Calm - N/A Fog Fog
12:54 AM 30.9°F / -0.6°C 30.9°F / -0.6°C 100% 30.14 in / 1020.4 hPa 0.2 miles / 0.4 kilometers Calm Calm - N/A Fog Light Freezing Fog
1:45 AM 30.9°F / -0.6°C 30.9°F / -0.6°C 100% 30.14 in / 1020.5 hPa 0.2 miles / 0.4 kilometers Calm Calm - N/A Fog Light Freezing Fog
1:54 AM 30.9°F / -0.6°C 30.9°F / -0.6°C 100% 30.15 in / 1020.9 hPa 0.2 miles / 0.4 kilometers Calm Calm - N/A Fog Light Freezing Fog
2:09 AM 30.9°F / -0.6°C 30.0°F / -1.1°C 96% 30.14 in / 1020.5 hPa 0.2 miles / 0.4 kilometers Calm Calm - N/A Fog Light Freezing Fog
2:25 AM 30.0°F / -1.1°C 28.9°F / -1.7°C 96% 30.15 in / 1020.9 hPa 0.2 miles / 0.4 kilometers Calm Calm - N/A Fog Light Freezing Fog
2:36 AM 28.9°F / -1.7°C 28.9°F / -1.7°C 100% 30.15 in / 1020.9 hPa 0.5 miles / 0.8 kilometers Calm Calm - N/A Fog Light Freezing Fog
2:49 AM 30.2°F / -1.0°C 28.4°F / -2.0°C 93% 30.15 in / 1020.9 hPa 0.5 miles / 0.8 kilometers Calm Calm - N/A Fog Light Freezing Fog
2:54 AM 28.9°F / -1.7°C 28.0°F / -2.2°C 96% 30.16 in / 1021.2 hPa 0.2 miles / 0.4 kilometers SE 3.5 mph / 5.6 km/h - N/A Fog Light Freezing Fog
3:03 AM 28.0°F / -2.2°C 28.0°F / -2.2°C 100% 30.15 in / 1020.9 hPa 0.2 miles / 0.4 kilometers Calm Calm - N/A Fog Light Freezing Fog
3:15 AM 28.0°F / -2.2°C 28.0°F / -2.2°C 100% 30.15 in / 1020.9 hPa 0.5 miles / 0.8 kilometers Calm Calm - N/A Fog Light Freezing Fog
3:23 AM 28.0°F / -2.2°C 27.0°F / -2.8°C 96% 30.15 in / 1020.9 hPa 0.2 miles / 0.4 kilometers SE 3.5 mph / 5.6 km/h - N/A Fog Light Freezing Fog
3:54 AM 28.0°F / -2.2°C 26.1°F / -3.3°C 92% 30.17 in / 1021.5 hPa 0.2 miles / 0.4 kilometers Calm Calm - N/A Fog Light Freezing Fog
4:54 AM 27.0°F / -2.8°C 26.1°F / -3.3°C 96% 30.18 in / 1021.8 hPa 0.2 miles / 0.4 kilometers Calm Calm - N/A Fog Light Freezing Fog
5:12 AM 27.0°F / -2.8°C 27.0°F / -2.8°C 100% 30.17 in / 1021.6 hPa 0.5 miles / 0.8 kilometers Calm Calm - N/A Fog Light Freezing Fog
5:22 AM 28.0°F / -2.2°C 27.0°F / -2.8°C 96% 30.17 in / 1021.6 hPa 0.2 miles / 0.4 kilometers Calm Calm - N/A Fog Light Freezing Fog
5:54 AM 28.0°F / -2.2°C 27.0°F / -2.8°C 96% 30.19 in / 1022.3 hPa 0.2 miles / 0.4 kilometers Calm Calm - N/A Fog Light Freezing Fog
6:54 AM 28.0°F / -2.2°C 26.1°F / -3.3°C 92% 30.22 in / 1023.2 hPa 0.2 miles / 0.4 kilometers Calm Calm - N/A Fog Light Freezing Fog
7:35 AM 27.0°F / -2.8°C 24.1°F / -4.4°C 89% 30.23 in / 1023.6 hPa 0.5 miles / 0.8 kilometers Calm Calm - N/A Fog Light Freezing Fog
7:45 AM 26.1°F / -3.3°C 23.0°F / -5.0°C 88% 30.24 in / 1023.9 hPa 0.5 miles / 0.8 kilometers Calm Calm - N/A Fog Light Freezing Fog
7:54 AM 26.1°F / -3.3°C 23.0°F / -5.0°C 88% 30.25 in / 1024.2 hPa 0.5 miles / 0.8 kilometers Calm Calm - N/A Fog Light Freezing Fog
8:09 AM 26.1°F / -3.3°C 23.0°F / -5.0°C 88% 30.24 in / 1023.9 hPa 10.0 miles / 16.1 kilometers South 3.5 mph / 5.6 km/h - N/A Fog Shallow Fog
8:54 AM 28.9°F / -1.7°C 26.1°F / -3.3°C 89% 30.27 in / 1025.1 hPa 10.0 miles / 16.1 kilometers Calm Calm - N/A Fog Shallow Fog
9:02 AM 28.9°F / -1.7°C 26.1°F / -3.3°C 89% 30.26 in / 1024.6 hPa 5.0 miles / 8.0 kilometers South 3.5 mph / 5.6 km/h - N/A Fog Shallow Fog
9:54 AM 30.9°F / -0.6°C 30.0°F / -1.1°C 96% 30.29 in / 1025.7 hPa 10.0 miles / 16.1 kilometers Calm Calm - N/A   Clear
10:54 AM 33.1°F / 0.6°C 28.0°F / -2.2°C 82% 30.30 in / 1026.0 hPa 10.0 miles / 16.1 kilometers NE 4.6 mph / 7.4 km/h - N/A   Clear
11:54 AM 37.4°F / 3.0°C 26.6°F / -3.0°C 65% 30.30 in / 1026.0 hPa 10.0 miles / 16.1 kilometers NE 6.9 mph / 11.1 km/h - N/A   Partly Cloudy
12:54 PM 37.9°F / 3.3°C 23.0°F / -5.0°C 55% 30.30 in / 1026.0 hPa 10.0 miles / 16.1 kilometers ENE 8.1 mph / 13.0 km/h - N/A   Clear
1:54 PM 39.0°F / 3.9°C 25.0°F / -3.9°C 57% 30.31 in / 1026.3 hPa 10.0 miles / 16.1 kilometers East 8.1 mph / 13.0 km/h - N/A   Partly Cloudy
1:56 PM 37.9°F / 3.3°C 24.1°F / -4.4°C 57% 30.30 in / 1026.0 hPa 10.0 miles / 16.1 kilometers East 8.1 mph / 13.0 km/h - N/A   Scattered Clouds
2:54 PM 37.9°F / 3.3°C 25.0°F / -3.9°C 60% 30.32 in / 1026.5 hPa 10.0 miles / 16.1 kilometers ESE 6.9 mph / 11.1 km/h - N/A   Overcast
3:54 PM 35.1°F / 1.7°C 26.1°F / -3.3°C 70% 30.32 in / 1026.7 hPa 10.0 miles / 16.1 kilometers SE 3.5 mph / 5.6 km/h - N/A   Mostly Cloudy
4:54 PM 33.1°F / 0.6°C 27.0°F / -2.8°C 78% 30.33 in / 1026.9 hPa 10.0 miles / 16.1 kilometers Calm Calm - N/A   Partly Cloudy
5:54 PM 30.0°F / -1.1°C 26.1°F / -3.3°C 85% 30.33 in / 1027.0 hPa 10.0 miles / 16.1 kilometers East 4.6 mph / 7.4 km/h - N/A   Clear
6:54 PM 26.1°F / -3.3°C 24.1°F / -4.4°C 92% 30.34 in / 1027.2 hPa 9.0 miles / 14.5 kilometers Calm Calm - N/A   Clear
7:54 PM 26.1°F / -3.3°C 25.0°F / -3.9°C 96% 30.32 in / 1026.6 hPa 7.0 miles / 11.3 kilometers SE 4.6 mph / 7.4 km/h - N/A   Clear
8:54 PM 27.0°F / -2.8°C 25.0°F / -3.9°C 92% 30.33 in / 1027.0 hPa 6.0 miles / 9.7 kilometers Calm Calm - N/A   Clear
9:54 PM 26.1°F / -3.3°C 24.1°F / -4.4°C 92% 30.32 in / 1026.8 hPa 5.0 miles / 8.0 kilometers Calm Calm - N/A   Clear
10:54 PM 26.1°F / -3.3°C 25.0°F / -3.9°C 96% 30.32 in / 1026.8 hPa 5.0 miles / 8.0 kilometers Calm Calm - N/A   Clear
11:54 PM 24.1°F / -4.4°C 21.9°F / -5.6°C 91% 30.32 in / 1026.8 hPa 6.0 miles / 9.7 kilometers Calm Calm - N/A   Clear
Moon Phase
Jan. 11 Jan. 18 Jan. 26 Feb. 03 Feb. 10
Sunrise:07:54 AM (PST) Moon Rise:07:29 AM (PST)1/11
Sunset:04:44 PM (PST) Moon Set:05:13 PM (PST)1/11

Copyright © 2014 The Weather Underground, Inc.